Location: Gradaro
(45.0833°N, 10.8833°E)
Time: 09:30:29
(UTC+00:00)

Lacrosse 4 Rocket - Pass Details

Date: 29 November 2020
Orbit: 537 x 620 km, 68.0° (Epoch: 23 January)

Event Time Altitude Azimuth Distance (km) Brightness Sun altitude
Exits shadow 05:14:42 16° 254° (WSW) 1,592 3.2 -13.4°
Maximum altitude 05:14:44 16° 254° (WSW) 1,592 3.2 -13.4°
Drops below altitude 10° 05:17:24 10° 216° (SW) 1,952 3.9 -13.0°
Sets 05:20:24 0° 195° (SSW) 2,863 5.0 -12.5°
